Location: Beutels
(47.8767°N, 9.8584°E)
Time: 00:29:36
(UTC+00:00)

Iridium 4 Rocket - Pass Details

Date: 19 May 2025
Orbit: 582 x 886 km, 86.9° (Epoch: 15 June)

Event Time Altitude Azimuth Distance (km) Brightness Sun altitude
Rises 19:59:04 0° 356° (N) 3,150 7.5 -9.0°
Reaches altitude 10° 20:01:17 10° 357° (N) 2,270 6.7 -9.3°
Maximum altitude 20:06:24 89° 268° (W) 799 3.6 -9.9°
Drops below altitude 10° 20:11:55 10° 179° (S) 2,442 5.7 -10.5°
Enters shadow 20:13:23 - 180° (S) 3,013 6.1 -10.7°
